Simultaneous Nadir Overpasses (SNOs) Predictions

Prediction of SNOs between NOAA-20 and LANDSAT-8 Satellite Orbit:

Table of predicted SNOs for the next 14.0 days since TLE Epoch: 8/15/2025
Index Date (NOAA-20) Time (NOAA-20) Lat,Lon (NOAA-20) SZA (NOAA-20 ) Date (LANDSAT-8) Time (LANDSAT-8) Lat,Lon (LANDSAT-8) SZA (LANDSAT-8 ) Distance(km) Time Diff (sec)
1 08/18/2025 06:44:51 70.30, 74.56 57.30 08/18/2025 06:46:02 70.22, 75.14 57.19 23.23 71
2 08/18/2025 07:35:28 -69.95,-117.58 123.06 08/18/2025 07:35:35 -69.95,-117.62 123.07 1.83 7
3 08/18/2025 08:26:12 69.83, 49.91 56.83 08/18/2025 08:25:02 69.84, 49.88 56.85 1.64 70
4 08/20/2025 23:01:40 70.01,-169.21 57.87 08/20/2025 23:02:35 70.02,-169.27 57.87 2.59 55
5 08/20/2025 23:52:22 -69.92, -1.75 122.22 08/20/2025 23:52:05 -69.91, -1.79 122.23 1.88 17
6 08/21/2025 00:42:52 69.06, 166.80 56.90 08/21/2025 00:41:44 69.14, 164.81 57.05 79.18 68
7 08/23/2025 15:18:34 69.99, -53.40 58.74 08/23/2025 15:19:04 70.02, -53.39 58.76 3.23 30
8 08/23/2025 16:09:16 -69.89, 114.06 121.35 08/23/2025 16:08:34 -69.91, 114.09 121.33 2.42 42
9 08/26/2025 06:44:51 -70.44,-105.63 119.88 08/26/2025 06:46:02 -70.33,-104.70 120.03 36.97 71
10 08/26/2025 07:35:28 69.97, 62.41 59.64 08/26/2025 07:35:34 69.95, 62.39 59.61 2.90 6
11 08/26/2025 08:26:10 -69.87,-130.12 120.46 08/26/2025 08:25:04 -69.84,-130.12 120.48 3.06 66
12 08/28/2025 23:01:37 -70.06, 10.74 119.35 08/28/2025 23:02:35 -70.03, 10.75 119.39 3.21 58
13 08/28/2025 23:52:20 69.91, 178.28 60.51 08/28/2025 23:52:02 69.91, 178.23 60.52 1.97 18



Historial Predications of SNOs between NOAA-20 and LANDSAT-8
